User: anonymous   Login
Location: RyutenAO
(34.8939°N, 134.0022°E)
Time: 06:56:52
(UTC+09:00)
Language:

LilacSat-2 - Orbit

View from above orbital plane
View from above orbital plane
View from above satellite
View from above satellite

Ground track
Ground track

The orbit data is extracted from the following two-line orbital elements,

1 40908U 15049K   23090.52196302  .00009097  00000-0  44084-3 0  9990
2 40908  97.5274  93.8525 0016328  99.4011 359.3634 15.18643370416005
Epoch (UTC): 31 March 2023 12:31:37
Eccentricity: 0.0016328
inclination: 97.5274°
perigee height: 498 km
apogee height: 521 km
right ascension of ascending node: 93.8525°
argument of perigee: 99.4011°
revolutions per day: 15.18643370
mean anomaly at epoch: 359.3634°
orbit number at epoch: 41600

The dashed part of the orbit path shows where the satellite is in the earth's shadow,  

DLR